Location: Biltmore Gardens
(41.6070°N, 83.4666°W)
Time: 15:04:57
(UTC+00:00)

Cosmos 1867 - Pass Details

Date: 14 July 2020
Orbit: 778 x 798 km, 65.0° (Epoch: 12 August)

Event Time Altitude Azimuth Distance (km) Brightness Sun altitude
Exits shadow 08:50:01 13° 192° (SSW) 2,139 5.3 -13.0°
Maximum altitude 08:54:42 55° 117° (ESE) 946 4.1 -12.4°
Drops below altitude 10° 09:00:01 10° 41° (NE) 2,370 7.6 -11.7°
Sets 09:02:30 0° 37° (NE) 3,306 8.7 -11.3°
